| time (UTC) | temp C | wind direction | speed KPH | gust KPH | rain 1hr cm | rain 24hr cm | rain mn cm | humidity % | barometer mb |
| 20260506224503 | 13 | 272 | 0.0 | 1.6 | 0.13 | 1.75 | 0.13 | 96 | 1006.5 |
| 20260506221803 | 13 | 321 | 1.6 | 3.2 | 0.15 | 1.70 | 0.08 | 96 | 1005.6 |
| 20260506220003 | 13 | 0 | 0.0 | 0.0 | 0.10 | 1.63 | 0.00 | 96 | 1005.6 |
| 20260506213603 | 13 | 98 | 0.0 | 1.6 | 0.25 | 1.60 | 1.60 | 96 | 1005.8 |
| 20260506212703 | 13 | 0 | 0.0 | 0.0 | 0.28 | 1.57 | 1.57 | 96 | 1005.7 |
| 20260506211803 | 13 | 0 | 0.0 | 0.0 | 0.30 | 1.55 | 1.55 | 96 | 1006.1 |
| 20260506210903 | 13 | 0 | 0.0 | 0.0 | 0.36 | 1.52 | 1.52 | 95 | 1005.9 |
| 20260506210004 | 13 | 0 | 0.0 | 0.0 | 0.38 | 1.52 | 1.52 | 95 | 1005.9 |
| 20260506205403 | 13 | 98 | 0.0 | 3.2 | 0.41 | 1.52 | 1.52 | 95 | 1005.9 |
| 20260506204503 | 13 | 0 | 0.0 | 0.0 | 0.38 | 1.42 | 1.45 | 95 | 1006.1 |
| 20260506203603 | 13 | 0 | 0.0 | 0.0 | 0.33 | 1.35 | 1.35 | 95 | 1006.4 |
| 20260506202703 | 13 | 311 | 0.0 | 3.2 | 0.28 | 1.30 | 1.30 | 95 | 1005.9 |
| 20260506201803 | 13 | 311 | 0.0 | 3.2 | 0.23 | 1.24 | 1.24 | 95 | 1005.9 |
| 20260506200903 | 13 | 279 | 1.6 | 4.8 | 0.20 | 1.17 | 1.17 | 95 | 1006.3 |
| 20260506200004 | 13 | 291 | 1.6 | 3.2 | 0.18 | 1.14 | 1.14 | 95 | 1005.9 |
| 20260506195620 | 13 | 269 | 0.0 | 3.2 | 0.20 | 1.14 | 1.14 | 95 | 1005.8 |
| 20260506194503 | 13 | 0 | 0.0 | 0.0 | 0.18 | 1.04 | 1.04 | 94 | 1005.5 |
| 20260506193603 | 13 | 0 | 0.0 | 0.0 | 0.23 | 1.02 | 1.02 | 94 | 1005.8 |
| 20260506192703 | 13 | 342 | 0.0 | 1.6 | 0.33 | 1.02 | 1.02 | 94 | 1005.2 |
| 20260506191803 | 13 | 0 | 0.0 | 0.0 | 0.51 | 1.02 | 1.02 | 93 | 1005.2 |
| 20260506191116 | 13 | 0 | 0.0 | 0.0 | 0.76 | 0.99 | 0.99 | 93 | 1005.7 |
| 20260506190220 | 13 | 241 | 0.0 | 1.6 | 0.94 | 0.97 | 0.97 | 93 | 1006.1 |
| 20260506185619 | 13 | 243 | 1.6 | 1.6 | 0.91 | 0.94 | 0.94 | 93 | 1005.8 |
| 20260506184503 | 14 | 328 | 1.6 | 3.2 | 0.84 | 0.86 | 0.86 | 92 | 1005.4 |
| 20260506183604 | 14 | 282 | 1.6 | 3.2 | 0.76 | 0.79 | 0.79 | 92 | 1005.4 |
| 20260506182917 | 14 | 197 | 0.0 | 1.6 | 0.69 | 0.71 | 0.71 | 91 | 1005.6 |
| 20260506181803 | 15 | 202 | 1.6 | 3.2 | 0.48 | 0.51 | 0.51 | 90 | 1006.0 |
| 20260506180903 | 15 | 352 | 0.0 | 1.6 | 0.13 | 0.15 | 0.15 | 89 | 1005.5 |
| 20260506180219 | 15 | 344 | 0.0 | 1.6 | 0.03 | 0.03 | 0.03 | 88 | 1004.6 |
| 20260506175403 | 15 | 356 | 0.0 | 1.6 | 0.03 | 0.03 | 0.03 | 87 | 1004.3 |
| 20260506174503 | 15 | 0 | 0.0 | 0.0 | 0.03 | 0.03 | 0.03 | 86 | 1004.5 |
| 20260506173818 | 15 | 0 | 0.0 | 1.6 | 0.03 | 0.03 | 0.03 | 85 | 1004.6 |
| 20260506171803 | 16 | 0 | 0.0 | 0.0 | 0.03 | 0.03 | 0.03 | 81 | 1004.1 |
| 20260506170903 | 16 | 241 | 1.6 | 3.2 | 0.03 | 0.03 | 0.03 | 79 | 1004.3 |
| 20260506170004 | 16 | 239 | 3.2 | 9.7 | 0.00 | 0.00 | 0.00 | 77 | 1004.4 |
| 20260506165403 | 18 | 236 | 3.2 | 11.3 | 0.00 | 0.00 | 0.00 | 67 | 1004.3 |
| 20260506164503 | 21 | 206 | 1.6 | 11.3 | 0.00 | 0.00 | 0.00 | 54 | 1004.4 |
| 20260506163603 | 21 | 251 | 0.0 | 1.6 | 0.00 | 0.00 | 0.00 | 49 | 1004.2 |
| 20260506162703 | 21 | 0 | 0.0 | 0.0 | 0.00 | 0.00 | 0.00 | 47 | 1004.0 |
| 20260506162016 | 21 | 255 | 0.0 | 1.6 | 0.00 | 0.00 | 0.00 | 46 | 1003.6 |
| 20260506160903 | 22 | 262 | 1.6 | 4.8 | 0.00 | 0.00 | 0.00 | 45 | 1004.0 |
| 20260506160003 | 22 | 262 | 1.6 | 4.8 | 0.00 | 0.00 | 0.00 | 44 | 1003.9 |
| 20260506155403 | 22 | 257 | 0.0 | 1.6 | 0.00 | 0.00 | 0.00 | 44 | 1003.9 |
| 20260506154503 | 22 | 242 | 1.6 | 4.8 | 0.00 | 0.00 | 0.00 | 43 | 1003.9 |
| 20260506153603 | 23 | 237 | 0.0 | 1.6 | 0.00 | 0.00 | 0.00 | 43 | 1004.2 |
| 20260506152916 | 23 | 249 | 1.6 | 4.8 | 0.00 | 0.00 | 0.00 | 42 | 1004.1 |
| 20260506151803 | 23 | 242 | 3.2 | 6.4 | 0.00 | 0.00 | 0.00 | 41 | 1004.2 |
| 20260506151119 | 23 | 248 | 3.2 | 6.4 | 0.00 | 0.00 | 0.00 | 43 | 1004.1 |
| 20260506150004 | 23 | 251 | 3.2 | 4.8 | 0.00 | 0.00 | 0.00 | 42 | 1004.1 |
| 20260506145403 | 23 | 248 | 3.2 | 9.7 | 0.00 | 0.00 | 0.00 | 43 | 1004.4 |
| 20260506144717 | 23 | 252 | 3.2 | 9.7 | 0.00 | 0.00 | 0.00 | 43 | 1004.5 |
| 20260506143816 | 23 | 250 | 3.2 | 4.8 | 0.00 | 0.00 | 0.00 | 42 | 1004.4 |
| 20260506142916 | 24 | 224 | 3.2 | 4.8 | 0.00 | 0.00 | 0.00 | 42 | 1004.5 |
| 20260506142019 | 23 | 248 | 3.2 | 4.8 | 0.00 | 0.00 | 0.00 | 44 | 1004.6 |
| 20260506140903 | 23 | 234 | 4.8 | 9.7 | 0.00 | 0.00 | 0.00 | 43 | 1004.9 |
| 20260506140004 | 23 | 206 | 3.2 | 9.7 | 0.00 | 0.00 | 0.00 | 43 | 1004.9 |
| 20260506135404 | 23 | 208 | 4.8 | 12.9 | 0.00 | 0.00 | 0.00 | 43 | 1004.8 |
| 20260506134503 | 23 | 216 | 4.8 | 12.9 | 0.00 | 0.00 | 0.00 | 45 | 1005.1 |
| 20260506133603 | 23 | 206 | 3.2 | 6.4 | 0.00 | 0.00 | 0.00 | 43 | 1005.3 |
| 20260506132703 | 23 | 256 | 4.8 | 14.5 | 0.00 | 0.00 | 0.00 | 44 | 1005.0 |
| 20260506132019 | 23 | 260 | 6.4 | 14.5 | 0.00 | 0.00 | 0.00 | 44 | 1005.0 |
| 20260506131118 | 23 | 252 | 4.8 | 11.3 | 0.00 | 0.00 | 0.00 | 43 | 1005.0 |
| 20260506130004 | 24 | 236 | 4.8 | 16.1 | 0.00 | 0.00 | 0.00 | 45 | 1005.1 |
| 20260506125617 | 24 | 237 | 3.2 | 11.3 | 0.00 | 0.00 | 0.00 | 44 | 1005.1 |
| 20260506124504 | 22 | 261 | 4.8 | 11.3 | 0.00 | 0.00 | 0.00 | 49 | 1005.4 |
| 20260506123604 | 22 | 226 | 3.2 | 12.9 | 0.00 | 0.00 | 0.00 | 47 | 1005.3 |
| 20260506122703 | 22 | 272 | 3.2 | 6.4 | 0.00 | 0.00 | 0.00 | 47 | 1005.1 |
| 20260506121803 | 22 | 218 | 4.8 | 9.7 | 0.00 | 0.00 | 0.00 | 50 | 1005.4 |
| 20260506120903 | 22 | 207 | 4.8 | 12.9 | 0.00 | 0.00 | 0.00 | 49 | 1005.5 |
| 20260506120004 | 21 | 185 | 3.2 | 6.4 | 0.00 | 0.00 | 0.00 | 50 | 1005.3 |
| 20260506115403 | 22 | 192 | 3.2 | 9.7 | 0.00 | 0.00 | 0.00 | 50 | 1005.4 |
| 20260506114503 | 21 | 227 | 3.2 | 6.4 | 0.00 | 0.00 | 0.00 | 51 | 1005.5 |
| 20260506113603 | 22 | 238 | 3.2 | 9.7 | 0.00 | 0.00 | 0.00 | 49 | 1005.1 |
| 20260506112703 | 21 | 268 | 3.2 | 9.7 | 0.00 | 0.00 | 0.00 | 51 | 1005.4 |
| 20260506112018 | 21 | 211 | 3.2 | 11.3 | 0.00 | 0.00 | 0.00 | 52 | 1005.3 |
| 20260506110903 | 21 | 240 | 3.2 | 6.4 | 0.00 | 0.00 | 0.00 | 51 | 1005.5 |
| 20260506110004 | 22 | 272 | 4.8 | 12.9 | 0.00 | 0.00 | 0.00 | 50 | 1005.4 |
| 20260506105616 | 21 | 269 | 4.8 | 12.9 | 0.00 | 0.00 | 0.00 | 50 | 1005.5 |
| 20260506104503 | 20 | 248 | 4.8 | 11.3 | 0.00 | 0.00 | 0.00 | 53 | 1005.2 |
| 20260506103603 | 20 | 252 | 4.8 | 11.3 | 0.00 | 0.00 | 0.00 | 53 | 1005.3 |
| 20260506102703 | 22 | 238 | 3.2 | 6.4 | 0.00 | 0.00 | 0.00 | 51 | 1005.0 |
| 20260506102018 | 21 | 228 | 3.2 | 6.4 | 0.00 | 0.00 | 0.00 | 52 | 1005.4 |
| 20260506100903 | 20 | 256 | 3.2 | 4.8 | 0.00 | 0.00 | 0.00 | 56 | 1005.1 |
| 20260506100216 | 20 | 237 | 3.2 | 9.7 | 0.00 | 0.00 | 0.00 | 55 | 1005.4 |
| 20260506095616 | 20 | 213 | 3.2 | 6.4 | 0.00 | 0.00 | 0.00 | 57 | 1005.4 |
| 20260506094503 | 21 | 224 | 3.2 | 6.4 | 0.00 | 0.00 | 0.00 | 54 | 1005.3 |
| 20260506093603 | 20 | 242 | 4.8 | 11.3 | 0.00 | 0.00 | 0.00 | 56 | 1005.2 |
| 20260506092703 | 20 | 250 | 3.2 | 9.7 | 0.00 | 0.00 | 0.00 | 58 | 1005.2 |
| 20260506092017 | 19 | 231 | 4.8 | 11.3 | 0.00 | 0.00 | 0.00 | 59 | 1005.3 |
| 20260506090903 | 19 | 250 | 4.8 | 11.3 | 0.00 | 0.00 | 0.00 | 58 | 1005.1 |
| 20260506090003 | 20 | 249 | 6.4 | 11.3 | 0.00 | 0.00 | 0.00 | 58 | 1005.3 |
| 20260506085403 | 19 | 240 | 6.4 | 11.3 | 0.00 | 0.00 | 0.00 | 60 | 1005.2 |
| 20260506084503 | 20 | 226 | 1.6 | 6.4 | 0.00 | 0.00 | 0.00 | 59 | 1004.9 |
| 20260506083603 | 20 | 254 | 3.2 | 4.8 | 0.00 | 0.00 | 0.00 | 62 | 1004.9 |
| 20260506082703 | 20 | 222 | 1.6 | 4.8 | 0.00 | 0.00 | 0.00 | 62 | 1004.9 |
| 20260506081803 | 19 | 256 | 3.2 | 9.7 | 0.00 | 0.00 | 0.00 | 65 | 1004.7 |
| 20260506080904 | 18 | 265 | 4.8 | 9.7 | 0.00 | 0.00 | 0.00 | 65 | 1004.8 |
| 20260506072703 | 18 | 239 | 3.2 | 6.4 | 0.00 | 0.00 | 0.00 | 68 | 1004.6 |
| 20260506071803 | 18 | 236 | 1.6 | 6.4 | 0.00 | 0.00 | 0.00 | 68 | 1004.8 |
| 20260506070903 | 18 | 247 | 1.6 | 4.8 | 0.00 | 0.00 | 0.00 | 69 | 1004.7 |
| 20260506070219 | 18 | 195 | 1.6 | 3.2 | 0.00 | 0.00 | 0.00 | 69 | 1004.7 |
| 20260506061803 | 15 | 237 | 0.0 | 1.6 | 0.00 | 0.00 | 0.00 | 77 | 1004.7 |
| 20260506061120 | 14 | 241 | 0.0 | 1.6 | 0.00 | 0.00 | 0.00 | 82 | 1004.7 |
| 20260506044503 | 11 | 0 | 0.0 | 0.0 | 0.00 | 0.00 | 0.00 | 89 | 1004.3 |
| 20260506043603 | 11 | 178 | 0.0 | 1.6 | 0.00 | 0.00 | 0.00 | 90 | 1004.2 |
| 20260506042703 | 11 | 0 | 0.0 | 0.0 | 0.00 | 0.00 | 0.00 | 90 | 1004.1 |
| 20260506041803 | 10 | 261 | 0.0 | 1.6 | 0.00 | 0.00 | 0.00 | 91 | 1004.1 |
| 20260506041119 | 10 | 262 | 0.0 | 1.6 | 0.00 | 0.00 | 0.00 | 91 | 1003.9 |
| 20260506040218 | 10 | 0 | 0.0 | 0.0 | 0.00 | 0.00 | 0.00 | 92 | 1003.7 |
| 20260506035617 | 10 | 0 | 0.0 | 0.0 | 0.00 | 0.00 | 0.00 | 92 | 1003.5 |
| 20260506034717 | 10 | 0 | 0.0 | 0.0 | 0.00 | 0.00 | 0.00 | 92 | 1003.4 |
| 20260506033603 | 9 | 0 | 0.0 | 0.0 | 0.00 | 0.00 | 0.00 | 92 | 1003.3 |
| 20260506032703 | 9 | 0 | 0.0 | 0.0 | 0.00 | 0.00 | 0.00 | 92 | 1003.3 |
| 20260506031803 | 8 | 0 | 0.0 | 0.0 | 0.00 | 0.00 | 0.00 | 92 | 1003.3 |
| 20260506030903 | 8 | 0 | 0.0 | 0.0 | 0.00 | 0.00 | 0.00 | 91 | 1003.5 |
| 20260506030218 | 8 | 0 | 0.0 | 0.0 | 0.00 | 0.00 | 0.00 | 91 | 1003.5 |
| 20260506025403 | 9 | 0 | 0.0 | 0.0 | 0.00 | 0.00 | 0.00 | 91 | 1003.6 |
| 20260506024503 | 8 | 0 | 0.0 | 0.0 | 0.00 | 0.00 | 0.00 | 90 | 1003.9 |
| 20260506023603 | 8 | 0 | 0.0 | 0.0 | 0.00 | 0.00 | 0.00 | 90 | 1003.9 |
| 20260506022703 | 8 | 0 | 0.0 | 0.0 | 0.00 | 0.00 | 0.00 | 89 | 1004.0 |
| 20260506021803 | 9 | 0 | 0.0 | 0.0 | 0.00 | 0.00 | 0.00 | 89 | 1004.1 |
| 20260506020904 | 10 | 0 | 0.0 | 0.0 | 0.00 | 0.00 | 0.00 | 89 | 1004.1 |
| 20260506020217 | 10 | 0 | 0.0 | 0.0 | 0.00 | 0.00 | 0.00 | 89 | 1004.0 |
| 20260506015403 | 9 | 0 | 0.0 | 0.0 | 0.00 | 0.00 | 0.00 | 89 | 1003.9 |
| 20260506014503 | 9 | 0 | 0.0 | 0.0 | 0.00 | 0.00 | 0.00 | 88 | 1003.9 |
| 20260506013603 | 10 | 0 | 0.0 | 0.0 | 0.00 | 0.00 | 0.00 | 88 | 1003.9 |
| 20260506012919 | 10 | 0 | 0.0 | 0.0 | 0.00 | 0.00 | 0.00 | 87 | 1004.0 |
| 20260506011803 | 10 | 0 | 0.0 | 0.0 | 0.00 | 0.00 | 0.00 | 86 | 1004.0 |
| 20260506010903 | 10 | 0 | 0.0 | 0.0 | 0.00 | 0.00 | 0.00 | 86 | 1003.9 |
| 20260506010003 | 11 | 247 | 0.0 | 1.6 | 0.00 | 0.00 | 0.00 | 85 | 1003.9 |
| 20260506005616 | 11 | 247 | 0.0 | 1.6 | 0.00 | 0.00 | 0.00 | 85 | 1003.9 |
| 20260506004504 | 10 | 0 | 0.0 | 0.0 | 0.00 | 0.00 | 0.00 | 85 | 1004.0 |
| 20260506003603 | 10 | 0 | 0.0 | 0.0 | 0.00 | 0.00 | 0.00 | 85 | 1003.6 |
| 20260506002703 | 11 | 0 | 0.0 | 0.0 | 0.00 | 0.00 | 0.00 | 85 | 1003.6 |
| 20260506000903 | 11 | 242 | 0.0 | 1.6 | 0.00 | 0.00 | 0.00 | 83 | 1003.4 |
| 20260506000003 | 11 | 256 | 0.0 | 1.6 | 0.00 | 0.00 | 0.00 | 84 | 1003.6 |
| 20260505235403 | 11 | 259 | 0.0 | 1.6 | 0.00 | 0.00 | 0.00 | 85 | 1003.8 |
| 20260505234503 | 11 | 265 | 0.0 | 1.6 | 0.00 | 0.00 | 0.00 | 85 | 1003.5 |
| 20260505233603 | 11 | 0 | 0.0 | 0.0 | 0.00 | 0.00 | 0.00 | 85 | 1003.4 |
| 20260505232703 | 11 | 0 | 0.0 | 0.0 | 0.00 | 0.00 | 0.00 | 85 | 1003.5 |
| 20260505231803 | 12 | 298 | 0.0 | 1.6 | 0.00 | 0.00 | 0.00 | 84 | 1003.7 |
| 20260505230903 | 12 | 291 | 0.0 | 1.6 | 0.00 | 0.00 | 0.00 | 82 | 1003.5 |
| 20260505230003 | 13 | 332 | 0.0 | 1.6 | 0.00 | 0.00 | 0.00 | 81 | 1003.9 |
| 20260505225403 | 13 | 324 | 0.0 | 1.6 | 0.00 | 0.00 | 0.00 | 81 | 1003.8 |